Flag for Cyprus Weather past 2 weeks in Larnaca, Cyprus

Now
54 °F

Scattered clouds.


Feels Like: 52 °F
Forecast: 49 / 64 °F
Wind: 7 mph from Southwest

Location: Larnaca Airport

Current Time: Jan 30, 2015 at 9:02:49 AM

Latest Report: Jan 30, 2015 at 8:30 AM


Visibility: N/A

Pressure: 29.92 "Hg

Humidity: 77%

Dew point: 46 °F

Location of LarnacaLocation

Historic Weather in Larnaca — Graph

°F

Larnaca temperature yesterday

Maximum temperature yesterday: 64 °F (at 12:00 PM)
Minimum temperature yesterday: 48 °F (at 2:30 AM)
Average temperature yesterday: 55 °F

Past Weeks' High & Low Weather Summary

 TemperatureHumidityPressure
High68 °F (Jan 23, 12:00 PM)100% (Jan 21, 6:00 AM)30.33 "Hg (Jan 21, 6:00 AM)
Low43 °F (Jan 16, 3:30 AM)34% (Jan 28, 4:30 PM)29.83 "Hg (Jan 30, 4:00 AM)
Average55 °F77%30.09 "Hg
* Reported Jan 15 8:00 AM — Jan 30 8:00 AM, Larnaca, Weather by CustomWeather, © 2014

Note: Actual official high and low records may vary slightly from our data, if they occured in-between our weather recording intervals... More about our weather records

Advertising

Larnaca weather history for previous 24 hours

 ConditionsComfort  
Time TempWeatherWind HumidityBarometerVisibility
8:00 AM
Jan 30
52 °FScattered clouds.3 mph88%29.89 "HgN/A
7:30 AM50 °FScattered clouds.6 mph94%29.89 "HgN/A
7:00 AM50 °FScattered clouds.7 mph88%29.89 "HgN/A
6:30 AM50 °FThunderstorms. Passing clouds.6 mph94%29.89 "HgN/A
6:00 AM50 °FThunderstorms. Mostly cloudy.8 mph94%29.89 "Hg4 mi
5:30 AM52 °FThunderstorms. Mostly cloudy.7 mph88%29.89 "Hg4 mi
5:00 AM50 °FThunderstorms. Partly cloudy.3 mph94%29.86 "Hg4 mi
4:30 AM50 °FThunderstorms. Partly cloudy.7 mph94%29.86 "Hg4 mi
4:00 AM50 °FThunderstorms. Partly cloudy.3 mph88%29.83 "HgN/A
3:30 AM50 °FPassing clouds.2 mph88%29.86 "HgN/A
3:00 AM52 °FPassing clouds.6 mph88%29.86 "HgN/A
2:30 AM52 °FThunderstorms. Partly cloudy.5 mph82%29.86 "HgN/A
2:00 AM52 °FThunderstorms. Partly cloudy.7 mph88%29.89 "Hg5 mi
1:30 AM54 °FPassing clouds.16 mph77%29.89 "HgN/A
1:00 AM50 °FPassing clouds.6 mph88%29.89 "HgN/A
12:30 AM50 °FPassing clouds.6 mph88%29.89 "HgN/A
12:00 AM50 °FPassing clouds.6 mph94%29.89 "HgN/A
11:30 PM
Jan 29
52 °FPassing clouds.6 mph88%29.92 "HgN/A
11:00 PM54 °FSprinkles. Passing clouds.7 mph77%29.92 "HgN/A
10:30 PM54 °FSprinkles. Passing clouds.10 mph77%29.92 "Hg4 mi
10:00 PM54 °FStrong thunderstorms. Passing clouds.23 mph82%29.92 "HgN/A
9:30 PM50 °FPassing clouds.5 mph88%29.92 "HgN/A
9:00 PM50 °FPassing clouds.3 mph82%29.92 "HgN/A
8:30 PM50 °FPassing clouds.3 mph88%29.92 "HgN/A
8:00 PM54 °FPassing clouds.3 mph77%29.92 "HgN/A
7:30 PM54 °FPassing clouds.3 mph77%29.92 "HgN/A
7:00 PM54 °FPassing clouds.No wind77%29.92 "HgN/A
6:30 PM55 °FPassing clouds.3 mph72%29.92 "HgN/A
6:00 PM57 °FPassing clouds.7 mph67%29.92 "HgN/A
5:30 PM57 °FPassing clouds.8 mph67%29.89 "HgN/A
5:00 PM59 °FScattered clouds.7 mph63%29.89 "HgN/A
4:30 PM61 °FScattered clouds.9 mph63%29.89 "HgN/A
4:00 PM63 °FScattered clouds.9 mph59%29.89 "HgN/A
3:30 PM63 °FPassing clouds.8 mph56%29.89 "HgN/A
3:00 PM63 °FPassing clouds.9 mph56%29.89 "HgN/A
2:30 PM63 °FPassing clouds.13 mph56%29.89 "HgN/A
2:00 PM64 °FPassing clouds.10 mph52%29.89 "HgN/A
1:30 PM64 °FPassing clouds.10 mph56%29.89 "HgN/A
1:00 PM64 °FPassing clouds.9 mph60%29.92 "HgN/A
12:30 PM64 °FPassing clouds.9 mph56%29.92 "HgN/A
12:00 PM64 °FPassing clouds.8 mph56%29.92 "HgN/A
11:30 AM63 °FPassing clouds.8 mph59%29.95 "HgN/A
11:00 AM63 °FPassing clouds.7 mph59%29.95 "HgN/A
10:30 AM63 °FPassing clouds.5 mph59%29.95 "HgN/A
10:00 AM63 °FPassing clouds.3 mph59%29.95 "HgN/A
9:30 AM63 °FPassing clouds.1 mph64%29.95 "HgN/A
9:00 AM59 °FPassing clouds.2 mph68%29.95 "HgN/A
Weather by CustomWeather, © 2014

See weather overviewHow to use our weather pages